Vorticity
nan nan nan nan nan nan nan nan nan nan nan nan nan nan nan nan nan nan nan nan nan nan nan nan nan nan nan nan nan nan nan nan nan nan nan nan nan nan nan nan nan nan nan nan nan nan nan nan nan
nan 6 14 11 8 6 5 7 3 7 1 5 3 -0 5 8 13 9 8 11 5 6 4 5 5 5 6 9 11 9 7 6 5 5 5 5 5 5 5 5 4 4 5 5 5 4 5 6 nan
nan 11 10 3 -1 1 7 3 4 -0 2 6 3 -1 7 8 5 8 10 8 5 7 10 6 5 4 5 8 10 9 8 7 6 5 5 5 5 5 4 4 4 4 5 7 7 6 5 5 nan
nan 12 8 11 -5 -7 7 10 3 2 5 11 16 1 0 2 13 16 8 5 8 9 9 7 5 4 5 6 8 9 8 7 7 6 6 5 5 4 4 4 5 5 6 6 8 8 7 6 nan
nan 10 9 1 7 18 7 4 5 6 10 13 0 8 7 13 12 10 6 6 9 10 9 7 6 4 5 5 6 9 9 7 7 6 6 5 4 4 5 5 5 6 6 7 7 8 8 6 nan
nan 10 0 9 9 7 8 8 6 6 22 -0 -0 13 1 10 8 6 5 4 11 5 6 7 5 5 5 5 6 7 8 7 6 6 5 5 5 5 6 4 4 6 6 7 7 8 6 7 nan
nan 1 10 -3 -0 12 -0 7 9 2 3 -1 5 3 13 11 6 7 8 7 3 4 5 6 5 6 5 5 6 6 6 6 6 5 5 5 5 5 4 5 5 6 6 6 8 8 6 8 nan
nan -3 12 18 12 11 -4 3 1 9 5 12 8 0 20 13 5 6 6 6 5 7 7 5 6 5 4 8 8 6 5 6 5 6 5 6 6 5 4 5 7 6 6 6 8 8 7 7 nan
nan 14 4 4 4 13 7 6 9 5 2 2 15 22 19 8 5 4 6 5 4 5 6 7 7 7 7 7 8 9 8 6 5 6 6 2 4 11 8 7 9 5 7 7 8 8 7 7 nan
nan 1 5 7 4 -11 12 1 9 17 7 4 -5 12 13 6 4 4 5 9 3 3 6 9 7 5 5 6 7 7 6 6 6 8 8 5 7 8 9 13 10 7 7 8 9 9 7 3 nan
nan 5 6 -5 5 2 6 12 17 2 -6 9 10 10 3 3 5 5 6 6 6 7 6 6 6 8 4 6 7 4 7 7 7 6 6 7 9 7 8 9 6 10 9 8 9 7 8 4 nan
nan 10 7 -5 1 6 3 8 12 10 19 15 13 6 5 6 4 6 8 8 10 7 7 6 7 6 7 7 9 6 7 6 6 7 6 7 7 5 7 7 8 7 9 8 7 7 7 10 nan
nan 4 2 3 3 4 7 9 5 22 23 14 13 7 7 6 6 7 7 6 7 8 9 10 8 6 9 8 10 9 4 9 8 6 5 5 6 8 7 7 8 8 6 7 8 7 8 10 nan
nan 8 6 2 4 5 3 13 8 -1 13 25 8 6 8 7 6 6 6 7 6 6 6 7 6 6 7 6 7 11 6 5 10 9 8 6 6 6 7 8 6 8 9 7 7 9 8 8 nan
nan 7 8 12 5 10 3 6 4 5 10 10 9 7 9 7 7 6 6 7 6 7 7 6 6 6 6 6 5 6 9 10 11 10 7 8 6 6 8 6 8 8 9 8 7 8 7 8 nan
nan 10 8 10 1 21 10 8 8 7 10 7 6 7 8 8 9 6 6 6 8 8 8 7 7 7 6 6 5 8 8 6 6 10 12 11 6 6 5 7 7 8 7 9 8 7 8 8 nan
nan 11 13 4 11 19 10 8 20 9 13 3 6 9 7 6 6 8 7 5 6 7 9 7 9 9 6 5 6 7 6 6 8 10 12 9 8 7 5 6 7 8 7 9 7 7 8 8 nan
nan 6 9 1 27 13 -0 7 14 11 15 8 7 11 6 9 7 7 6 6 7 6 6 6 7 8 7 7 7 7 9 8 6 11 13 8 7 7 6 7 9 9 6 6 8 8 6 9 nan
nan 5 18 11 -1 3 7 6 7 24 16 1 5 8 6 9 9 8 6 7 8 8 6 7 7 6 6 7 7 8 8 7 8 7 7 11 9 8 8 7 8 8 9 8 7 7 9 8 nan
nan 8 5 7 10 7 4 7 4 12 8 -0 13 16 8 8 10 11 8 9 6 9 7 6 8 7 5 6 8 7 9 8 7 6 8 10 10 9 8 8 8 7 9 8 8 6 8 10 nan
nan 7 9 6 10 10 7 9 10 13 4 8 6 15 10 12 13 7 10 11 8 8 9 8 8 8 9 6 7 7 7 9 10 10 10 9 10 11 9 7 8 7 9 8 9 8 7 8 nan
nan 10 8 6 9 6 5 10 27 18 -0 1 19 8 9 10 10 15 12 9 9 6 11 12 11 10 9 9 9 9 7 8 8 9 9 9 12 11 10 9 8 8 9 8 7 7 7 8 nan
nan 4 10 11 9 9 7 3 12 10 7 4 11 16 21 14 14 11 8 6 7 9 9 11 11 10 9 9 11 11 10 7 8 9 10 10 12 12 11 9 8 8 8 10 8 7 7 7 nan
nan 8 7 6 12 12 12 9 3 12 7 5 10 24 11 13 13 8 7 7 7 11 9 4 7 7 6 8 10 11 10 10 11 11 13 12 11 12 12 10 10 9 9 9 8 9 9 7 nan
nan 8 7 9 12 7 17 20 5 20 16 13 12 8 9 11 6 6 7 6 9 7 6 7 8 8 8 9 6 6 11 12 11 14 16 12 10 11 12 11 9 9 10 9 8 9 8 7 nan
nan 5 4 4 1 2 11 15 15 12 10 14 17 9 8 6 6 5 4 8 9 7 7 11 6 8 9 8 7 7 9 11 10 12 15 14 11 11 11 11 11 9 9 10 7 9 12 11 nan
nan 11 4 6 7 12 7 6 18 2 6 8 9 8 10 8 4 6 6 10 7 7 8 10 10 8 9 9 7 9 9 10 9 12 13 14 13 13 13 12 11 10 10 9 11 10 11 10 nan
nan 6 9 9 9 8 11 17 9 0 6 12 9 9 11 13 8 6 8 9 7 7 8 7 9 7 8 9 8 9 8 10 11 9 10 11 11 14 16 14 14 14 13 10 9 9 8 9 nan
nan 5 5 11 12 7 6 15 13 7 3 6 9 12 10 9 6 11 11 6 7 5 8 8 8 8 7 6 11 11 6 7 9 7 9 9 11 9 11 15 14 15 16 13 8 9 11 11 nan
nan nan nan nan nan nan nan nan nan nan nan nan nan nan nan nan nan nan nan nan nan nan nan nan nan nan nan nan nan nan nan nan nan nan nan nan nan nan nan nan nan nan nan nan nan nan nan nan nan
CAPE
953 1500 1629 828 509 174 80 40 18 29 8 5 19 36 19 3 0 453 668 1124 1754 1752 2190 2582 3310 3359 3589 3554 3627 3587 3319 2992 2841 2783 2555 2123 2140 2100 1721 2204 2022 1633 1456 1125 1153 1172 1315 1188 1233
1538 1303 904 83 130 227 108 48 0 10 34 15 9 137 252 278 396 688 1151 1387 2158 2234 2152 2247 3415 3658 3857 3852 3986 3842 3463 2725 2497 2394 2544 2224 2116 1834 1891 2018 1705 1656 1421 1257 909 1071 1174 1205 1275
1773 2319 813 32 15 314 51 41 2 39 12 433 7 34 239 413 519 1227 1537 1811 1869 2501 2079 2701 3680 3846 3720 3850 3937 3825 3637 3204 2669 2554 2444 2382 2123 1866 1808 1798 1256 1346 1487 1366 1320 1235 1138 1274 1376
1918 1728 1414 379 408 284 106 24 113 0 7 197 0 59 489 419 921 1188 1623 1562 1759 1729 2582 3262 3666 3753 3561 3723 3753 3753 3593 3426 2935 2809 2724 2416 2249 2007 1621 1405 1487 1285 1500 1571 1301 1025 1312 1359 1546
955 685 3 70 185 224 52 7 5 242 182 260 25 0 696 959 1133 1357 1513 1394 1593 2629 2762 2680 3732 3991 3820 3676 3798 3736 3825 3720 3322 3253 2789 2595 2427 2172 2072 1772 1747 1732 1453 1374 1560 960 1449 1154 1579
135 16 65 8 125 94 38 85 70 178 270 663 61 117 20 1567 1494 1483 1518 1617 2658 3080 2832 2717 3846 4165 4016 3493 3718 3918 3982 3788 3775 3561 3159 2740 2666 2697 2684 1861 1722 1707 1378 1597 1588 1458 1444 1357 1570
29 0 235 26 36 24 0 19 102 300 224 448 117 18 38 1844 1782 1908 2093 1701 3072 3517 3279 3040 3020 3212 3508 3542 3703 4052 4056 4002 3851 3686 3537 3226 2639 2477 2333 2279 1812 1743 1669 1613 1576 1520 1583 1357 1482
0 166 9 35 219 139 107 71 4 393 217 588 458 225 1252 2088 1925 1889 2473 2740 2610 3184 3719 3278 3295 3269 3212 3271 3787 3844 4036 3901 3664 3337 2805 2425 2447 2497 2340 2774 2556 1922 1631 1511 1492 1729 1765 1874 1722
0 31 12 39 3 234 99 18 136 299 421 135 91 1132 2326 2065 2043 2312 2698 2717 3285 3330 3424 3388 3402 3461 3681 3359 3148 3717 3404 3211 2927 2556 2796 3063 2384 2253 2162 2328 2615 1865 1731 1512 1422 1757 1761 2104 1379
0 71 2 125 113 137 21 43 67 386 101 13 0 10 2082 1993 1767 2310 2188 2459 2550 2811 3544 3259 3003 3030 3117 2601 2543 2740 2428 2756 2935 2740 2915 2593 2070 2377 2238 2061 2226 1598 1626 1644 1842 1952 1706 1732 1123
2 25 194 177 198 21 16 4 95 394 204 92 127 73 1911 2010 2256 2240 2108 2188 2606 3027 2711 3417 3258 3372 2775 2245 2351 2898 2448 2276 2487 2250 1882 2489 2122 2268 1877 2582 1842 1775 1996 1480 2073 1969 1448 1032 1184
0 1 159 128 152 51 76 9 0 87 251 436 32 706 1888 2002 1739 1725 2223 2372 2659 2780 2898 3175 3486 3388 2724 3158 1610 1783 2413 2273 1835 1741 2112 1265 1128 1319 2237 2443 2300 2283 2064 2473 2046 1838 2036 1535 879
0 42 31 147 163 166 56 0 88 653 415 179 530 997 1950 2039 1605 1705 1883 1950 2012 2333 2706 2988 3437 3852 3332 2560 1166 1671 2186 2245 2063 1934 1156 765 850 1597 2170 1835 2022 2140 2226 2631 1820 1809 1736 1561 1237
0 72 131 18 162 97 64 50 114 178 247 1539 1981 1925 1919 2007 1388 1563 1974 1964 1939 2058 2512 3143 3209 3498 3429 3389 2798 2568 2377 1542 1149 1831 1690 1167 1391 2353 2184 1879 1666 1556 2037 1573 2089 1885 1819 1384 1742
0 0 86 141 112 249 0 252 21 4 3 1008 1742 1812 1833 2223 1474 1782 2221 2361 2216 2407 2560 2900 3176 3199 3575 3725 3342 3374 2727 1976 1796 1553 1861 1293 1500 1727 1724 1526 1479 2025 2362 1844 2033 1838 1849 1440 1737
101 30 74 160 197 277 16 142 116 22 1 1233 1497 1668 1670 1954 1461 1721 2367 2666 2953 2713 3016 3196 2511 3046 3544 3668 3484 2956 2250 2367 1997 1464 1700 1964 1920 1679 2156 1614 1269 1907 2120 1907 1400 1475 1526 1439 1738
70 76 4 30 210 115 22 398 787 153 177 1104 1211 1588 1431 1772 1841 2051 2053 2234 2582 3569 3667 3606 3610 3376 3555 3743 2949 2823 2617 2227 1883 1731 1511 2200 1814 1742 1670 1424 1132 1664 1876 2235 2199 1134 1452 1383 1365
18 99 45 0 0 148 17 0 500 231 454 763 1189 1451 1603 1746 1789 1905 1871 1976 2618 3059 3695 3685 3439 3636 3646 3321 3263 3032 2218 1950 1808 1346 1968 1553 1624 1404 1458 1421 1322 1106 878 1936 2093 1433 1283 882 967
81 150 118 105 242 146 19 0 113 479 349 180 1055 1016 1503 1639 1893 2202 2008 2311 2778 3040 3655 3823 3496 3802 3559 3406 2583 2161 1617 1532 1567 1590 1677 1803 1273 1096 1280 1127 981 1216 1055 1515 1679 1639 1137 1241 1091
70 28 94 168 170 90 6 0 0 320 98 76 118 925 1440 1317 1525 2314 2640 2615 2946 3357 3664 3978 3296 3294 3003 2847 2344 2604 2492 1749 1316 1642 1377 983 808 934 1182 1054 1296 1462 897 1166 1727 1238 1169 1346 905
0 1 24 68 2 102 0 26 103 109 7 75 148 662 746 1260 1786 2692 2480 3150 3305 3668 3677 3789 3137 2836 2778 2215 2385 2411 2172 898 876 452 1291 1139 845 777 941 966 1193 817 1312 987 1374 1350 551 953 1102
0 0 0 2 0 3 5 112 765 290 176 8 5 382 496 1089 1286 2877 3103 3380 3443 3455 3321 3541 3767 3669 2662 1778 1638 1817 1543 523 678 840 1118 710 548 934 706 841 1037 1451 1305 892 1548 1170 448 495 841
0 0 0 0 0 0 0 0 703 609 121 0 0 1 489 1002 1260 3067 2802 3141 3197 3036 3227 3419 3737 3434 2704 1920 1541 1517 468 839 1284 759 1009 1447 909 1093 774 799 920 1279 1265 868 809 1028 1117 652 395
0 0 0 0 0 0 0 0 138 119 360 7 11 401 1151 1849 2853 2941 2975 3149 3070 2314 2498 3056 3435 3177 2110 1401 1726 1414 1232 1078 1253 1245 997 1342 1410 1356 947 691 1011 1133 1180 815 545 894 1190 555 319
0 0 0 0 0 0 144 15 411 590 485 288 543 943 1683 2866 2687 2277 1600 2739 2630 2075 1913 1041 3015 2458 1978 1536 1145 1171 1169 1092 1029 1083 1083 1092 1152 1144 988 779 858 979 1378 846 736 551 652 449 344
0 0 0 59 11 94 327 54 125 867 653 348 692 1082 1719 2559 1555 1602 1744 1752 2071 1659 1357 835 2194 1974 1195 1307 1336 1296 700 202 863 1038 1081 1196 1170 1042 1085 1006 943 1068 1044 823 599 1254 346 476 279
0 0 0 0 0 32 258 193 127 244 540 813 887 1068 1624 2539 1737 921 417 1494 1507 1387 1171 1634 1564 1541 1193 1119 1047 1209 579 180 509 975 1045 1259 1102 1030 1150 916 836 650 633 1082 891 438 539 234 218
0 0 0 0 0 33 154 236 862 810 662 1019 1003 1017 1554 2713 1316 1168 1310 1284 1262 1222 1504 1081 1374 1132 1166 1236 1247 1016 309 261 490 635 613 1089 511 956 805 1016 785 449 339 412 468 288 303 241 155
0 0 0 0 2 40 242 346 642 212 270 758 1192 1182 1613 2382 1789 1501 1156 1078 1045 1128 1095 905 1095 1211 1059 941 1293 898 112 196 507 239 307 378 724 370 251 267 1019 802 404 243 254 296 272 276 182
0 0 0 0 233 100 249 409 139 144 45 402 1012 1612 1870 2222 1831 1565 1366 1322 1034 980 1168 610 1004 1062 992 1062 1081 789 379 165 744 515 479 547 605 579 305 292 198 289 277 155 214 166 207 153 119